User: anonymous   Login
Location: Unspecified
(0.0000°N, 0.0000°E)
Time: 22:31:57
(UTC+00:00)
Language:

USA 245 - Orbit

View from above orbital plane
View from above orbital plane
View from above satellite
View from above satellite

Ground track
Ground track

The orbit data is extracted from the following two-line orbital elements,

1 39232U 13043A   17172.80804128 0.00008000  00000-0  82890-4 0    01
2 39232  97.8779 235.2192 0519087 345.5798  14.4200 14.79504584    01
Epoch (UTC): 21 June 2017 19:23:34
Eccentricity: 0.0519087
inclination: 97.8779°
perigee height: 267 km
apogee height: 995 km
right ascension of ascending node: 235.2192°
argument of perigee: 345.5798°
revolutions per day: 14.79504584
mean anomaly at epoch: 14.4200°
orbit number at epoch: 0

The dashed part of the orbit path shows where the satellite is in the earth's shadow,  

DLR